IAVONS21 Weather Reports


time (UTC)temp
C
wind
direction
speed
KPH
gust
KPH
rain 1hr
cm
rain 24hr
cm
rain mn
cm
humidity
%
barometer
mb
20260510022508 12 89 6.4 12.9 0.00 0.00 0.00 71 1029.7
20260510022010 13 82 3.2 12.9 0.00 0.00 0.00 71 1029.8
20260510021515 13 101 6.4 12.9 0.00 0.00 0.00 69 1029.9
20260510021007 13 156 6.4 12.9 0.00 0.00 0.00 67 1030.0
20260510020507 13 104 3.2 9.7 0.00 0.00 0.00 68 1030.0
20260510020014 13 94 1.6 6.4 0.00 0.00 0.00 62 1030.0
20260510015509 13 244 1.6 6.4 0.00 0.00 0.00 61 1030.1
20260510015004 13 253 0.0 3.2 0.00 0.00 0.00 62 1030.1
20260510014513 12 162 0.0 0.0 0.00 0.00 0.00 61 1030.1
20260510014006 12 163 0.0 3.2 0.00 0.00 0.00 64 1030.2
20260510013508 12 24 0.0 6.4 0.00 0.00 0.00 67 1030.3
20260510013015 11 60 1.6 6.4 0.00 0.00 0.00 68 1030.4
20260510012505 11 60 3.2 9.7 0.00 0.00 0.00 72 1030.4
20260510012006 11 101 1.6 9.7 0.00 0.00 0.00 74 1030.6
20260510011512 11 87 4.8 11.3 0.00 0.00 0.00 74 1030.6
20260510011008 11 87 3.2 12.9 0.00 0.00 0.00 73 1030.6
20260510010506 11 94 4.8 9.7 0.00 0.00 0.00 73 1030.6
20260510010018 11 89 6.4 11.3 0.00 0.00 0.00 74 1030.6
20260510005509 11 104 4.8 11.3 0.00 0.00 0.00 74 1030.7
20260510005008 11 122 3.2 12.9 0.00 0.00 0.00 75 1030.7
20260510004514 11 77 3.2 11.3 0.00 0.00 0.00 76 1030.7
20260510004005 11 97 3.2 9.7 0.00 0.00 0.00 74 1030.7
20260510003508 11 83 3.2 11.3 0.00 0.00 0.00 72 1030.6
20260510003023 11 91 3.2 11.3 0.00 0.00 0.00 73 1030.6
20260510002509 11 88 4.8 6.4 0.00 0.00 0.00 72 1030.6
20260510002010 11 93 3.2 6.4 0.00 0.00 0.00 72 1030.6
20260510001518 11 101 3.2 6.4 0.00 0.00 0.00 72 1030.6
20260510001009 11 94 1.6 6.4 0.00 0.00 0.00 70 1030.6
20260510000507 11 72 1.6 6.4 0.00 0.00 0.00 69 1030.6
20260510000013 11 79 3.2 6.4 0.00 0.00 0.00 68 1030.6
20260509235510 11 69 1.6 6.4 0.00 0.00 0.00 68 1030.5
20260509235007 12 91 3.2 4.8 0.00 0.00 0.00 67 1030.5
20260509234521 12 80 1.6 4.8 0.00 0.00 0.00 64 1030.5
20260509234007 12 70 1.6 4.8 0.00 0.00 0.00 63 1030.4
20260509233507 12 64 0.0 3.2 0.00 0.00 0.00 62 1030.4
20260509233024 11 29 0.0 4.8 0.00 0.00 0.00 59 1030.4
20260509232510 11 27 0.0 4.8 0.00 0.00 0.00 59 1030.3
20260509232006 11 27 0.0 4.8 0.00 0.00 0.00 63 1030.2
20260509231521 11 27 1.6 4.8 0.00 0.00 0.00 62 1030.2
20260509231006 11 45 0.0 3.2 0.00 0.00 0.00 62 1030.3
20260509230507 10 23 0.0 4.8 0.00 0.00 0.00 63 1030.3
20260509230022 10 26 0.0 4.8 0.00 0.00 0.00 65 1030.2
20260509225507 10 31 1.6 3.2 0.00 0.00 0.00 65 1030.3
20260509225009 10 36 0.0 3.2 0.00 0.00 0.00 66 1030.3
20260509224513 9 37 0.0 3.2 0.00 0.00 0.00 65 1030.2
20260509224008 9 31 0.0 3.2 0.00 0.00 0.00 66 1030.3
20260509223505 8 30 1.6 3.2 0.00 0.00 0.00 67 1030.3
20260509223016 8 34 0.0 3.2 0.00 0.00 0.00 66 1030.2
20260509222505 8 18 0.0 4.8 0.00 0.00 0.00 67 1030.1
20260509222004 8 17 0.0 6.4 0.00 0.00 0.00 68 1030.0
20260509221517 8 15 1.6 6.4 0.00 0.00 0.00 68 1030.0
20260509221013 8 13 3.2 6.4 0.00 0.00 0.00 67 1030.0
20260509220508 8 32 3.2 6.4 0.00 0.00 0.00 68 1029.8
20260509220011 8 349 0.0 3.2 0.00 0.00 0.00 68 1029.5
20260509215507 7 330 0.0 4.8 0.00 0.00 0.00 70 1029.5
20260509215007 7 330 0.0 4.8 0.00 0.00 0.00 69 1029.5
20260509214516 7 305 0.0 4.8 0.00 0.00 0.00 71 1029.4
20260509214006 6 334 0.0 0.0 0.00 0.00 0.00 72 1029.5
20260509213509 6 334 0.0 0.0 0.00 0.00 0.00 73 1029.2
20260509213017 6 334 0.0 0.0 0.00 0.00 0.00 73 1029.3
20260509212511 6 329 0.0 4.8 0.00 0.00 0.00 74 1029.2
20260509212010 6 329 0.0 4.8 0.00 0.00 0.00 74 1029.1
20260509211504 5 306 1.6 4.8 0.00 0.00 0.00 76 1029.1
20260509211006 5 330 0.0 3.2 0.00 0.00 0.00 77 1029.0
20260509210507 5 330 0.0 0.0 0.00 0.00 0.00 77 1029.0
20260509210008 5 330 0.0 3.2 0.00 0.00 0.00 76 1028.9
20260509205506 5 330 0.0 6.4 0.00 0.00 0.00 76 1028.9
20260509205008 5 330 1.6 6.4 0.00 0.00 0.00 77 1028.9
20260509204517 5 349 0.0 3.2 0.00 0.00 0.00 77 1028.8
20260509204009 5 349 0.0 6.4 0.00 0.00 0.00 78 1028.8
20260509203506 5 348 1.6 6.4 0.00 0.00 0.00 78 1028.8
20260509203023 5 341 0.0 3.2 0.00 0.00 0.00 78 1028.8
20260509202508 5 339 0.0 3.2 0.00 0.00 0.00 77 1028.7
20260509202013 5 343 0.0 1.6 0.00 0.00 0.00 77 1028.7
20260509201520 5 343 0.0 3.2 0.00 0.00 0.00 77 1028.7
20260509201011 6 343 0.0 4.8 0.00 0.00 0.00 76 1028.6
20260509200509 6 341 1.6 4.8 0.00 0.00 0.00 76 1028.6
20260509200018 6 329 0.0 3.2 0.00 0.00 0.00 76 1028.5
20260509195505 6 267 0.0 0.0 0.00 0.00 0.00 76 1028.4
20260509195005 6 261 0.0 0.0 0.00 0.00 0.00 76 1028.3
20260509194523 6 261 0.0 0.0 0.00 0.00 0.00 76 1028.2
20260509194008 6 261 0.0 0.0 0.00 0.00 0.00 76 1028.2
20260509193511 7 245 0.0 0.0 0.00 0.00 0.00 75 1028.2
20260509193025 7 245 0.0 0.0 0.00 0.00 0.00 75 1028.1
20260509192505 7 245 0.0 0.0 0.00 0.00 0.00 75 1028.0
20260509192009 7 248 0.0 0.0 0.00 0.00 0.00 74 1027.9
20260509191522 7 248 0.0 0.0 0.00 0.00 0.00 74 1027.9
20260509191011 7 248 0.0 0.0 0.00 0.00 0.00 74 1027.9
20260509190508 7 248 0.0 0.0 0.00 0.00 0.00 75 1027.8
20260509190022 7 248 0.0 0.0 0.00 0.00 0.00 75 1027.7
20260509185509 7 244 0.0 1.6 0.00 0.00 0.00 75 1027.6
20260509185014 7 244 0.0 3.2 0.00 0.00 0.00 75 1027.6
20260509184527 7 243 0.0 3.2 0.00 0.00 0.00 75 1027.6
20260509184006 7 260 0.0 0.0 0.00 0.00 0.00 73 1027.6
20260509183509 7 260 0.0 0.0 0.00 0.00 0.00 72 1027.6
20260509183022 7 260 0.0 0.0 0.00 0.00 0.00 72 1027.5
20260509182507 7 260 0.0 0.0 0.00 0.00 0.00 71 1027.5
20260509182013 7 257 0.0 0.0 0.00 0.00 0.00 71 1027.3
20260509181515 8 253 0.0 3.2 0.00 0.00 0.00 72 1027.3
20260509181007 7 243 0.0 4.8 0.00 0.00 0.00 72 1027.3
20260509180509 7 243 1.6 4.8 0.00 0.00 0.00 72 1027.2
20260509180019 7 250 0.0 0.0 0.00 0.00 0.00 72 1027.3
20260509175510 7 251 0.0 0.0 0.00 0.00 0.00 71 1027.3
20260509175009 7 251 0.0 0.0 0.00 0.00 0.00 72 1027.3
20260509174522 7 247 0.0 0.0 0.00 0.00 0.00 72 1027.3
20260509174013 7 248 0.0 0.0 0.00 0.00 0.00 72 1027.3
20260509173509 8 248 0.0 0.0 0.00 0.00 0.00 72 1027.4
20260509173022 8 248 0.0 4.8 0.00 0.00 0.00 71 1027.4
20260509172512 8 248 0.0 4.8 0.00 0.00 0.00 71 1027.4
20260509172008 8 248 1.6 4.8 0.00 0.00 0.00 72 1027.5
20260509171524 8 254 3.2 4.8 0.00 0.00 0.00 72 1027.5
20260509171007 8 262 1.6 4.8 0.00 0.00 0.00 72 1027.6
20260509170506 8 258 0.0 6.4 0.00 0.00 0.00 72 1027.5
20260509170018 8 264 1.6 9.7 0.00 0.00 0.00 71 1027.6
20260509165506 8 266 3.2 9.7 0.00 0.00 0.00 72 1027.4
20260509165006 8 289 3.2 9.7 0.00 0.00 0.00 73 1027.4
20260509164523 8 262 3.2 4.8 0.00 0.00 0.00 73 1027.5
20260509164003 8 262 1.6 4.8 0.00 0.00 0.00 73 1027.6
20260509163513 8 262 1.6 4.8 0.00 0.00 0.00 73 1027.6
20260509163008 8 257 3.2 6.4 0.00 0.00 0.00 73 1027.6
20260509162503 8 254 1.6 6.4 0.00 0.00 0.00 74 1027.6
20260509162002 8 256 1.6 4.8 0.00 0.00 0.00 75 1027.6
20260509161508 8 243 1.6 6.4 0.00 0.00 0.00 75 1027.7
20260509161007 8 251 3.2 6.4 0.00 0.00 0.00 75 1027.7
20260509160507 8 256 4.8 6.4 0.00 0.00 0.00 75 1027.7
20260509160024 8 256 4.8 6.4 0.00 0.00 0.00 75 1027.7
20260509155508 8 258 4.8 6.4 0.00 0.00 0.00 75 1027.7
20260509155007 8 262 4.8 9.7 0.00 0.00 0.00 75 1027.7
20260509154503 8 264 4.8 9.7 0.00 0.00 0.00 76 1027.8
20260509154007 8 250 4.8 8.0 0.00 0.00 0.00 76 1027.8
20260509153505 7 251 4.8 12.9 0.00 0.00 0.00 76 1027.7
20260509153011 7 249 4.8 12.9 0.00 0.00 0.00 75 1027.8
20260509152503 8 249 6.4 12.9 0.00 0.00 0.00 75 1027.7
20260509152011 8 248 6.4 11.3 0.00 0.00 0.00 75 1027.7
20260509151509 8 266 6.4 11.3 0.00 0.00 0.00 76 1027.7
20260509151010 8 251 6.4 9.7 0.00 0.00 0.00 76 1027.7
20260509150506 8 253 4.8 9.7 0.00 0.00 0.00 76 1027.7
20260509150013 8 250 4.8 8.0 0.00 0.00 0.00 76 1027.7
20260509145507 8 255 4.8 8.0 0.00 0.00 0.00 76 1027.7
20260509145011 8 249 4.8 8.0 0.00 0.00 0.00 77 1027.7
20260509144521 8 245 3.2 8.0 0.00 0.00 0.00 77 1027.7
20260509144011 8 249 4.8 9.7 0.00 0.00 0.00 77 1027.7
20260509143508 8 250 4.8 11.3 0.00 0.00 0.00 77 1027.7
20260509143022 8 255 4.8 11.3 0.00 0.00 0.00 77 1027.6
20260509142503 8 226 3.2 9.7 0.00 0.00 0.00 77 1027.6
20260509142003 8 246 4.8 8.0 0.00 0.00 0.00 77 1027.6
20260509141508 8 251 4.8 8.0 0.00 0.00 0.00 77 1027.6
20260509141002 8 243 4.8 8.0 0.00 0.00 0.00 76 1027.6
20260509140503 8 249 4.8 9.7 0.00 0.00 0.00 76 1027.6
20260509140010 8 255 6.4 11.3 0.00 0.00 0.00 76 1027.6
20260509135510 8 249 6.4 11.3 0.00 0.00 0.00 76 1027.6
20260509135007 8 244 6.4 11.3 0.00 0.00 0.00 77 1027.7
20260509134517 8 256 4.8 6.4 0.00 0.00 0.00 77 1027.7
20260509134009 8 267 4.8 6.4 0.00 0.00 0.00 77 1027.7
20260509133516 8 258 1.6 6.4 0.00 0.00 0.00 78 1027.7
20260509133020 8 258 3.2 6.4 0.00 0.00 0.00 78 1027.7
20260509132512 8 251 3.2 4.8 0.00 0.00 0.00 78 1027.7
20260509132011 8 254 3.2 6.4 0.00 0.00 0.00 78 1027.7
20260509131522 8 258 3.2 6.4 0.00 0.00 0.00 77 1027.8
20260509131008 8 255 0.0 4.8 0.00 0.00 0.00 77 1027.7
20260509130504 8 250 0.0 6.4 0.00 0.00 0.00 77 1027.8
20260509130008 8 254 3.2 6.4 0.00 0.00 0.00 77 1027.8
20260509125509 8 246 1.6 8.0 0.00 0.00 0.00 78 1027.8
20260509125006 8 258 4.8 8.0 0.00 0.00 0.00 78 1027.9
20260509124511 8 247 3.2 9.7 0.00 0.00 0.00 78 1027.9
20260509124004 8 251 4.8 9.7 0.00 0.00 0.00 79 1028.0
20260509123508 8 268 3.2 6.4 0.00 0.00 0.00 79 1028.0
20260509123016 8 261 3.2 6.4 0.00 0.00 0.00 78 1028.0
20260509122512 8 267 3.2 6.4 0.00 0.00 0.00 79 1028.1
20260509122007 8 261 3.2 6.4 0.00 0.00 0.00 79 1028.1
20260509121529 8 249 3.2 8.0 0.00 0.00 0.00 79 1028.1
20260509121011 7 242 4.8 8.0 0.00 0.00 0.00 79 1028.0
20260509120508 7 249 3.2 8.0 0.00 0.00 0.00 79 1028.1
20260509120030 7 256 4.8 9.7 0.00 0.00 0.00 80 1028.1
20260509115515 7 264 4.8 9.7 0.00 0.00 0.00 81 1028.1
20260509115003 7 259 0.0 6.4 0.00 0.00 0.00 81 1028.1
20260509114527 7 267 3.2 6.4 0.00 0.00 0.00 81 1028.0
20260509114011 7 260 3.2 6.4 0.00 0.00 0.00 81 1028.0
20260509113506 7 260 3.2 6.4 0.00 0.00 0.00 81 1028.0
20260509113012 7 258 0.0 4.8 0.00 0.00 0.00 80 1027.9
20260509112508 7 254 0.0 6.4 0.00 0.00 0.00 80 1027.9
20260509112010 8 258 3.2 6.4 0.00 0.00 0.00 80 1027.8
20260509111516 8 249 3.2 6.4 0.00 0.00 0.00 80 1027.8
20260509111009 8 245 3.2 6.4 0.00 0.00 0.00 80 1027.7
20260509110509 8 250 3.2 6.4 0.00 0.00 0.00 80 1027.6
20260509110027 7 246 1.6 6.4 0.00 0.00 0.00 81 1027.6
20260509105508 8 252 1.6 4.8 0.00 0.00 0.00 80 1027.6
20260509105008 8 251 1.6 4.8 0.00 0.00 0.00 80 1027.6
20260509104524 8 250 0.0 0.0 0.00 0.00 0.00 79 1027.5
20260509104010 8 244 0.0 8.0 0.00 0.00 0.00 79 1027.5
20260509103511 8 244 0.0 8.0 0.00 0.00 0.00 79 1027.4
20260509103009 8 266 3.2 8.0 0.00 0.00 0.00 78 1027.3
20260509102505 8 252 3.2 8.0 0.00 0.00 0.00 78 1027.3
20260509102007 8 242 3.2 11.3 0.00 0.00 0.00 78 1027.3
20260509101516 8 263 4.8 11.3 0.00 0.00 0.00 78 1027.3
20260509101008 8 241 6.4 11.3 0.00 0.00 0.00 78 1027.3
20260509100509 8 241 4.8 12.9 0.00 0.00 0.00 78 1027.2
20260509100029 8 260 6.4 12.9 0.00 0.00 0.00 78 1027.3
20260509095508 8 256 4.8 11.3 0.00 0.00 0.00 77 1027.2
20260509095014 8 243 3.2 8.0 0.00 0.00 0.00 77 1027.2
20260509094528 8 248 3.2 8.0 0.00 0.00 0.00 76 1027.2
20260509094008 8 243 1.6 4.8 0.00 0.00 0.00 76 1027.2
20260509093508 9 238 0.0 11.3 0.00 0.00 0.00 76 1027.3
20260509093026 9 239 4.8 11.3 0.00 0.00 0.00 76 1027.3
20260509092516 9 246 3.2 11.3 0.00 0.00 0.00 76 1027.3
20260509092010 8 233 3.2 9.7 0.00 0.00 0.00 76 1027.3
20260509091528 8 232 3.2 8.0 0.00 0.00 0.00 76 1027.3
20260509091007 8 261 4.8 8.0 0.00 0.00 0.00 76 1027.2
20260509090509 9 239 3.2 12.9 0.00 0.00 0.00 76 1027.1
20260509090020 8 237 6.4 12.9 0.00 0.00 0.00 76 1027.0
20260509085507 9 257 6.4 12.9 0.00 0.00 0.00 76 1027.0
20260509085008 8 246 6.4 12.9 0.00 0.00 0.00 76 1027.0
20260509084527 9 249 6.4 12.9 0.00 0.00 0.00 76 1026.9
20260509084013 9 231 4.8 11.3 0.00 0.00 0.00 75 1026.9
20260509083509 9 266 4.8 11.3 0.00 0.00 0.00 74 1026.9
20260509083033 9 236 4.8 9.7 0.00 0.00 0.00 74 1026.9
20260509082511 9 253 4.8 8.0 0.00 0.00 0.00 74 1026.8
20260509082010 9 248 3.2 8.0 0.00 0.00 0.00 74 1026.7
20260509081530 9 254 0.0 12.9 0.00 0.00 0.00 74 1026.7
20260509081009 9 250 4.8 12.9 0.00 0.00 0.00 75 1026.7
20260509080511 9 262 4.8 9.7 0.00 0.00 0.00 76 1026.7
20260509080022 9 251 4.8 8.0 0.00 0.00 0.00 76 1026.7
20260509075507 9 250 3.2 6.4 0.00 0.00 0.00 76 1026.6
20260509075007 10 237 3.2 6.4 0.00 0.00 0.00 75 1026.6
20260509074516 10 237 4.8 8.0 0.00 0.00 0.00 75 1026.4
20260509074003 10 245 3.2 8.0 0.00 0.00 0.00 75 1026.3
20260509073503 10 243 3.2 8.0 0.00 0.00 0.00 75 1026.3
20260509073005 10 254 1.6 8.0 0.00 0.00 0.00 74 1026.3
20260509072502 10 241 1.6 6.4 0.00 0.00 0.00 73 1026.2
20260509072003 10 242 1.6 6.4 0.00 0.00 0.00 72 1026.2
20260509071506 11 243 1.6 6.4 0.00 0.00 0.00 72 1026.1
20260509071003 11 241 3.2 6.4 0.00 0.00 0.00 71 1025.9
20260509070506 11 239 3.2 6.4 0.00 0.00 0.00 71 1025.8
20260509070013 11 242 3.2 6.4 0.00 0.00 0.00 70 1025.8
20260509065507 11 241 3.2 6.4 0.00 0.00 0.00 69 1025.8
20260509065007 12 215 0.0 3.2 0.00 0.00 0.00 69 1025.8
20260509064522 11 204 0.0 3.2 0.00 0.00 0.00 69 1025.7
20260509064009 11 172 0.0 3.2 0.00 0.00 0.00 70 1025.8
20260509063510 11 157 0.0 6.4 0.00 0.00 0.00 69 1025.7
20260509063021 11 147 0.0 6.4 0.00 0.00 0.00 69 1025.7
20260509062503 12 121 1.6 6.4 0.00 0.00 0.00 69 1025.8
20260509062003 11 157 1.6 8.0 0.00 0.00 0.00 68 1025.8
20260509061502 12 146 1.6 8.0 0.00 0.00 0.00 68 1025.7
20260509061003 12 151 3.2 8.0 0.00 0.00 0.00 68 1025.6
20260509060503 12 156 3.2 12.9 0.00 0.00 0.00 68 1025.6
20260509060010 12 200 3.2 14.5 0.00 0.00 0.00 67 1025.6
20260509055507 12 147 4.8 16.1 0.00 0.00 0.00 67 1025.6
20260509055008 12 135 6.4 16.1 0.00 0.00 0.00 66 1025.5
20260509054512 12 170 3.2 9.7 0.00 0.00 0.00 67 1025.5
20260509054008 12 162 3.2 9.7 0.00 0.00 0.00 67 1025.5
20260509053507 12 158 3.2 12.9 0.00 0.00 0.00 66 1025.6
20260509053022 12 142 3.2 12.9 0.00 0.00 0.00 67 1025.5
20260509052509 12 127 3.2 16.1 0.00 0.00 0.00 66 1025.5
20260509052012 12 142 3.2 16.1 0.00 0.00 0.00 66 1025.5
20260509051523 12 145 4.8 14.5 0.00 0.00 0.00 66 1025.3
20260509051003 12 154 3.2 9.7 0.00 0.00 0.00 66 1025.4
20260509050503 12 158 4.8 12.9 0.00 0.00 0.00 65 1025.3
20260509050009 12 141 6.4 12.9 0.00 0.00 0.00 63 1025.3
20260509045503 12 108 3.2 14.5 0.00 0.00 0.00 64 1025.3
20260509045003 12 139 1.6 14.5 0.00 0.00 0.00 65 1025.4
20260509044510 13 134 3.2 12.9 0.00 0.00 0.00 63 1025.5
20260509044007 13 150 3.2 12.9 0.00 0.00 0.00 63 1025.4
20260509043505 13 136 6.4 14.5 0.00 0.00 0.00 63 1025.5
20260509043032 13 143 4.8 12.9 0.00 0.00 0.00 63 1025.5
20260509042510 13 151 3.2 9.7 0.00 0.00 0.00 63 1025.3
20260509042007 13 107 4.8 9.7 0.00 0.00 0.00 64 1025.3
20260509041520 13 131 1.6 6.4 0.00 0.00 0.00 64 1025.2
20260509041009 13 110 1.6 6.4 0.00 0.00 0.00 63 1025.3
20260509040507 13 112 1.6 6.4 0.00 0.00 0.00 64 1025.2
20260509040024 13 147 1.6 6.4 0.00 0.00 0.00 66 1025.1
20260509035510 13 121 1.6 6.4 0.00 0.00 0.00 64 1025.1
20260509035004 13 209 3.2 6.4 0.00 0.00 0.00 61 1025.1
20260509034510 13 169 3.2 9.7 0.00 0.00 0.00 62 1025.2
20260509034004 13 142 3.2 9.7 0.00 0.00 0.00 65 1025.2
20260509033509 13 247 0.0 9.7 0.00 0.00 0.00 64 1025.1
20260509033010 12 155 1.6 9.7 0.00 0.00 0.00 66 1025.3
20260509032511 12 263 3.2 6.4 0.00 0.00 0.00 63 1025.2
20260509032016 12 164 0.0 8.0 0.00 0.00 0.00 66 1025.0
20260509031522 12 250 1.6 8.0 0.00 0.00 0.00 65 1025.1
20260509031011 12 230 1.6 11.3 0.00 0.00 0.00 66 1025.1
20260509030511 12 248 3.2 11.3 0.00 0.00 0.00 65 1025.1
20260509030034 12 244 4.8 11.3 0.00 0.00 0.00 68 1025.1
20260509025507 12 220 4.8 11.3 0.00 0.00 0.00 65 1025.1
20260509025014 12 170 1.6 11.3 0.00 0.00 0.00 67 1025.2
20260509024526 11 256 8.0 11.3 0.00 0.00 0.00 66 1025.2
20260509024009 11 258 4.8 11.3 0.00 0.00 0.00 67 1025.2
20260509023503 11 215 4.8 11.3 0.00 0.00 0.00 68 1025.2
20260509023037 11 206 3.2 12.9 0.00 0.00 0.00 70 1025.3